UKV5025 ENBR-ENSB

Flight info

Callsign UKV5025
Flight time N/A
Altitude 37000
Route INTUM DCT TABEV DCT 70N009E 75N012E DCT SUSES
Aircraft E190/M-SDE3GILORVW/S

Departure

Time 2026-05-01 11:50
Airport Bergen Airport, Flesland (ENBR)

Arrival

Time N/A
Airport Svalbard Airport, Longyear (ENSB)
Time Latitude Longitude Altitude Speed Heading
2026-05-01 11:29 60.28700 5.22921 172 ft 0 kts 80°
2026-05-01 11:38 60.28698 5.22894 172 ft 4 kts 80°
2026-05-01 11:38 60.28694 5.22841 172 ft 3 kts 80°
2026-05-01 11:38 60.28693 5.22835 172 ft 0 kts 80°
2026-05-01 11:43 60.28698 5.22843 172 ft 1 kts 45°
2026-05-01 11:44 60.28720 5.22761 171 ft 4 kts 278°
2026-05-01 11:44 60.28719 5.22662 168 ft 10 kts 265°
2026-05-01 11:44 60.28700 5.22487 164 ft 14 kts 245°
2026-05-01 11:44 60.28722 5.22347 162 ft 13 kts 341°
2026-05-01 11:45 60.28817 5.22313 161 ft 15 kts 348°
2026-05-01 11:45 60.28927 5.22276 160 ft 17 kts 351°
2026-05-01 11:45 60.29049 5.22235 161 ft 18 kts 349°
2026-05-01 11:45 60.29177 5.22189 161 ft 20 kts 350°
2026-05-01 11:46 60.29315 5.22149 160 ft 21 kts 352°
2026-05-01 11:46 60.29416 5.22117 156 ft 23 kts 349°
2026-05-01 11:46 60.29586 5.22055 149 ft 26 kts 349°
2026-05-01 11:46 60.29770 5.21992 147 ft 27 kts 349°
2026-05-01 11:47 60.29950 5.21931 154 ft 25 kts 351°
2026-05-01 11:47 60.30046 5.21805 158 ft 12 kts 264°
2026-05-01 11:47 60.30043 5.21757 159 ft 0 kts 261°
2026-05-01 11:47 60.30042 5.21744 159 ft 4 kts 261°
2026-05-01 11:48 60.30028 5.21621 161 ft 11 kts 239°
2026-05-01 11:48 60.29981 5.21602 160 ft 0 kts 168°
2026-05-01 11:48 60.29976 5.21604 160 ft 0 kts 168°
2026-05-01 11:49 60.29966 5.21608 160 ft 0 kts 168°
2026-05-01 11:50 60.29940 5.21619 158 ft 23 kts 168°
2026-05-01 11:50 60.29532 5.21755 147 ft 95 kts 171°
2026-05-01 11:50 60.28680 5.22037 217 ft 148 kts 169°
2026-05-01 11:50 60.27607 5.22428 890 ft 166 kts 170°
2026-05-01 11:51 60.26451 5.22886 1883 ft 170 kts 173°
2026-05-01 11:51 60.25307 5.23223 2800 ft 163 kts 175°
2026-05-01 11:51 60.24203 5.23553 3642 ft 161 kts 174°
2026-05-01 11:51 60.23068 5.23901 4313 ft 170 kts 176°
2026-05-01 11:52 60.21909 5.24272 5160 ft 165 kts 177°
2026-05-01 11:52 60.20781 5.24645 5818 ft 173 kts 179°
2026-05-01 11:52 60.19528 5.25048 6215 ft 194 kts 174°
2026-05-01 11:52 60.18193 5.26224 6586 ft 228 kts 153°
2026-05-01 11:53 60.17020 5.28688 7011 ft 263 kts 129°
2026-05-01 11:53 60.16414 5.32377 7432 ft 298 kts 99°
2026-05-01 11:53 60.16804 5.36575 8007 ft 317 kts 65°
2026-05-01 11:53 60.18184 5.40026 8740 ft 322 kts 34°
2026-05-01 11:54 60.20208 5.41764 9486 ft 316 kts
2026-05-01 11:54 60.22349 5.41542 10269 ft 307 kts 340°
2026-05-01 11:54 60.24422 5.40258 10723 ft 317 kts 331°
2026-05-01 11:54 60.26507 5.38644 11384 ft 324 kts 331°
2026-05-01 11:55 60.28622 5.36980 12196 ft 327 kts 329°
2026-05-01 11:55 60.30703 5.35125 13098 ft 330 kts 329°
2026-05-01 11:55 60.33011 5.34155 13965 ft 354 kts 355°
2026-05-01 11:55 60.35455 5.35282 14896 ft 366 kts 14°
2026-05-01 11:56 60.37884 5.36912 15756 ft 368 kts 10°
2026-05-01 11:56 60.40376 5.38208 16601 ft 371 kts
2026-05-01 11:56 60.42906 5.39211 17404 ft 372 kts
2026-05-01 11:56 60.45465 5.40120 18191 ft 375 kts
2026-05-01 11:57 60.48042 5.40966 18915 ft 380 kts
2026-05-01 11:57 60.50591 5.42640 19564 ft 390 kts 16°
2026-05-01 11:57 60.53113 5.44823 20226 ft 397 kts 18°
2026-05-01 11:57 60.55654 5.47100 20851 ft 402 kts 18°
2026-05-01 11:58 60.58227 5.49418 21468 ft 407 kts 18°
2026-05-01 11:58 60.60791 5.51733 22029 ft 411 kts 18°
2026-05-01 11:58 60.66072 5.56496 23174 ft 420 kts 18°
2026-05-01 11:59 60.68743 5.58918 23756 ft 422 kts 18°
2026-05-01 11:59 60.71440 5.61367 24234 ft 426 kts 18°
2026-05-01 11:59 60.74150 5.63843 24778 ft 427 kts 18°
2026-05-01 12:00 60.79630 5.68856 25764 ft 435 kts 19°
2026-05-01 12:00 60.82419 5.71414 25977 ft 446 kts 19°
2026-05-01 12:00 60.88253 5.76787 26104 ft 474 kts 19°
2026-05-01 12:01 60.91286 5.79600 26360 ft 480 kts 19°
2026-05-01 12:01 60.94339 5.82436 26800 ft 483 kts 19°
2026-05-01 12:01 60.97435 5.85094 27227 ft 480 kts 12°
2026-05-01 12:01 61.00669 5.86447 27640 ft 472 kts
2026-05-01 12:02 61.03936 5.87212 28073 ft 472 kts
2026-05-01 12:02 61.07217 5.87986 28354 ft 476 kts
2026-05-01 12:02 61.10508 5.88808 28643 ft 478 kts
2026-05-01 12:02 61.13809 5.89646 28979 ft 480 kts
2026-05-01 12:03 61.17128 5.90494 29423 ft 477 kts
2026-05-01 12:03 61.20379 5.91288 30388 ft 465 kts
2026-05-01 12:03 61.23553 5.92074 31195 ft 454 kts
2026-05-01 12:03 61.26683 5.92866 31599 ft 454 kts
2026-05-01 12:04 61.29828 5.93672 31883 ft 456 kts
2026-05-01 12:04 61.32982 5.94490 32106 ft 458 kts
2026-05-01 12:04 61.36158 5.95314 32332 ft 461 kts
2026-05-01 12:04 61.39344 5.96150 32562 ft 463 kts
2026-05-01 12:05 61.42544 5.96996 32753 ft 465 kts
2026-05-01 12:05 61.48975 5.98693 33223 ft 467 kts
2026-05-01 12:05 61.52201 5.99549 33449 ft 469 kts
2026-05-01 12:06 61.55441 6.00411 33670 ft 470 kts
2026-05-01 12:06 61.58686 6.01279 33889 ft 471 kts
2026-05-01 12:06 61.61942 6.02147 34107 ft 472 kts
2026-05-01 12:06 61.65207 6.03021 34289 ft 474 kts
2026-05-01 12:07 61.68483 6.03897 34462 ft 475 kts
2026-05-01 12:07 61.71757 6.04778 34699 ft 474 kts
2026-05-01 12:07 61.75028 6.05656 34972 ft 473 kts
2026-05-01 12:07 61.78294 6.06539 35175 ft 473 kts
2026-05-01 12:08 61.81562 6.07422 35350 ft 474 kts
2026-05-01 12:08 61.84839 6.08302 35548 ft 474 kts
2026-05-01 12:08 61.88107 6.09193 35771 ft 474 kts
2026-05-01 12:08 61.91376 6.10082 36013 ft 473 kts
2026-05-01 12:09 61.94635 6.10971 36250 ft 473 kts
2026-05-01 12:09 61.97903 6.11861 36408 ft 474 kts
2026-05-01 12:09 62.01164 6.12761 36654 ft 473 kts
2026-05-01 12:09 62.04385 6.13640 36869 ft 473 kts
2026-05-01 12:10 62.14047 6.16295 36908 ft 469 kts
2026-05-01 12:11 62.23819 6.18997 36938 ft 474 kts
2026-05-01 12:11 62.27083 6.19908 36837 ft 473 kts
2026-05-01 12:11 62.30344 6.20815 36857 ft 472 kts
2026-05-01 12:12 62.36858 6.22638 36853 ft 472 kts
2026-05-01 12:12 62.43384 6.24464 36851 ft 473 kts
2026-05-01 12:13 62.49910 6.26306 36831 ft 473 kts
2026-05-01 12:13 62.56448 6.28160 36843 ft 474 kts
2026-05-01 12:14 62.63000 6.30023 36841 ft 475 kts
2026-05-01 12:14 62.69552 6.31898 36861 ft 475 kts
2026-05-01 12:15 62.76104 6.33776 36837 ft 475 kts
2026-05-01 12:15 62.82663 6.35668 36842 ft 475 kts
2026-05-01 12:16 62.89223 6.37567 36843 ft 476 kts
2026-05-01 12:16 62.95784 6.39475 36842 ft 476 kts
2026-05-01 12:17 63.02353 6.41396 36838 ft 474 kts
2026-05-01 12:17 63.08902 6.43320 36843 ft 475 kts
2026-05-01 12:18 63.15411 6.45239 36837 ft 475 kts
2026-05-01 12:18 63.21969 6.47181 36837 ft 475 kts
2026-05-01 12:19 63.28527 6.49133 36834 ft 475 kts
2026-05-01 12:19 63.35085 6.51091 36814 ft 475 kts
2026-05-01 12:20 63.41635 6.53058 36830 ft 475 kts
2026-05-01 12:20 63.48192 6.55040 36824 ft 476 kts
2026-05-01 12:21 63.54754 6.57030 36824 ft 476 kts
2026-05-01 12:21 63.61313 6.59028 36782 ft 478 kts
2026-05-01 12:22 63.67880 6.61039 36830 ft 476 kts
2026-05-01 12:22 63.74449 6.63056 36812 ft 477 kts
2026-05-01 12:23 63.81019 6.65079 36817 ft 477 kts
2026-05-01 12:23 63.87595 6.67119 36807 ft 477 kts
2026-05-01 12:24 63.94173 6.69160 36830 ft 476 kts
2026-05-01 12:24 64.00748 6.71213 36801 ft 477 kts
2026-05-01 12:25 64.10617 6.74324 36796 ft 477 kts
2026-05-01 12:26 64.17154 6.76396 36796 ft 477 kts
2026-05-01 12:26 64.27037 6.79545 36770 ft 479 kts
2026-05-01 12:27 64.36930 6.82718 36784 ft 479 kts
2026-05-01 12:28 64.46830 6.85925 36773 ft 479 kts
2026-05-01 12:29 64.56734 6.89127 36773 ft 479 kts
2026-05-01 12:29 64.66641 6.92372 36763 ft 479 kts
2026-05-01 12:30 64.76549 6.95648 36766 ft 479 kts
2026-05-01 12:31 64.83110 6.97818 36735 ft 481 kts
2026-05-01 12:31 64.89727 7.00024 36764 ft 479 kts
2026-05-01 12:32 64.96335 7.02250 36745 ft 480 kts
2026-05-01 12:32 65.06263 7.05600 36755 ft 480 kts
2026-05-01 12:33 65.12877 7.07851 36739 ft 480 kts
2026-05-01 12:33 65.19487 7.10089 36711 ft 480 kts
2026-05-01 12:34 65.26087 7.12361 36745 ft 479 kts
2026-05-01 12:34 65.32696 7.14641 36724 ft 480 kts
2026-05-01 12:35 65.39305 7.16931 36720 ft 480 kts
2026-05-01 12:35 65.45917 7.19260 36726 ft 481 kts
2026-05-01 12:36 65.49204 7.20431 37077 ft 476 kts
2026-05-01 12:36 65.52499 7.21622 36933 ft 480 kts
2026-05-01 12:36 65.59107 7.23999 36960 ft 481 kts
2026-05-01 12:37 65.64609 7.25934 36957 ft 481 kts
2026-05-01 12:37 65.71240 7.28268 36944 ft 481 kts
2026-05-01 12:38 65.77869 7.30657 36926 ft 483 kts
2026-05-01 12:38 65.84508 7.33041 36944 ft 482 kts
2026-05-01 12:39 65.91152 7.35423 36939 ft 483 kts
2026-05-01 12:39 65.97796 7.37812 36935 ft 483 kts
2026-05-01 12:40 66.04429 7.40229 36937 ft 483 kts
2026-05-01 12:40 66.11087 7.42620 36904 ft 481 kts
2026-05-01 12:41 66.17713 7.44916 36929 ft 482 kts
2026-05-01 12:41 66.24357 7.47212 36920 ft 482 kts
2026-05-01 12:42 66.30988 7.49508 36921 ft 482 kts
2026-05-01 12:42 66.37592 7.51805 36914 ft 482 kts
2026-05-01 12:43 66.44214 7.54123 36926 ft 479 kts
2026-05-01 12:43 66.50832 7.56447 36906 ft 480 kts
2026-05-01 12:44 66.57442 7.58781 36907 ft 480 kts
2026-05-01 12:45 66.70714 7.63507 36898 ft 480 kts
2026-05-01 12:45 66.77311 7.65874 36878 ft 483 kts
2026-05-01 12:46 66.83962 7.68276 36889 ft 482 kts
2026-05-01 12:46 66.90604 7.70688 36884 ft 483 kts
2026-05-01 12:47 66.97254 7.73116 36879 ft 483 kts
2026-05-01 12:47 67.03906 7.75557 36914 ft 484 kts
2026-05-01 12:48 67.10575 7.78016 36865 ft 485 kts
2026-05-01 12:48 67.17248 7.80494 36873 ft 485 kts
2026-05-01 12:49 67.23925 7.82985 36861 ft 485 kts
2026-05-01 12:49 67.30603 7.85488 36860 ft 485 kts